Date String (YYYY-MM-DD hh:mm:ss) UTC,Instrument flags,Ambient pressure (hPa),Sample flow (lpm),Bypass flow (lpm),Sample temperature (°C),Ambient temperature (°C),ASC tube jacket temperature (°C),LED temperature (°C),Box temperature (°C),Sample RH (%),Span deviation,Mass concentration (μg/m³),Mass concentration (μg/m³),Mass concentration (μg/m³)
DateTimeUTC,F1_M11,P_M11,Q1_M11,Q2_M11,T1_M11,T2_M11,T3_M11,T4_M11,T5_M11,U1_M11,ZSPAN_M11,X0_M11,X2_M11,X1_M11
2022-03-01 21:00:00,,0828.5,4.99,0.00,30.3,29.5,00.0,39.1,32.0,08.7,0000.0,0009.86,0003.16,0001.90
2022-03-01 21:01:00,,0828.5,5.01,0.00,30.3,29.6,00.0,39.1,32.1,09.0,0000.0,0009.93,0003.16,0001.95
2022-03-01 21:02:00,,0828.5,4.99,0.00,30.3,29.6,00.0,39.2,32.1,09.2,0000.0,0010.63,0003.13,0001.94
2022-03-01 21:03:00,,0828.4,5.01,0.00,30.3,29.6,00.0,39.2,32.1,09.1,0000.0,0010.47,0003.16,0001.94
2022-03-01 21:04:00,,0828.5,4.98,0.00,30.4,29.7,00.0,39.2,32.1,09.3,0000.0,0010.22,0003.16,0001.92
2022-03-01 21:05:00,,0828.4,5.00,0.00,30.4,29.7,00.0,39.2,32.2,08.9,0000.0,0009.64,0003.15,0001.91
2022-03-01 21:06:00,,0828.4,4.99,0.00,30.4,29.7,00.0,39.2,32.2,08.9,0000.0,0009.02,0003.11,0001.91
2022-03-01 21:07:00,,0828.5,5.01,0.00,30.4,29.8,00.0,39.3,32.2,09.1,0000.0,0009.12,0003.09,0001.89
2022-03-01 21:08:00,,0828.5,4.99,0.00,30.5,29.8,00.0,39.3,32.3,09.2,0000.0,0010.11,0003.07,0001.86
2022-03-01 21:09:00,,0828.5,5.00,0.00,30.5,29.8,00.0,39.3,32.2,08.9,0000.0,0010.29,0003.10,0001.87
2022-03-01 21:10:00,,0828.5,5.00,0.00,30.4,28.3,00.0,39.3,31.9,08.8,0000.0,0010.51,0003.06,0001.87
2022-03-01 21:11:00,,0828.5,5.02,0.00,30.3,26.3,00.0,39.3,31.4,09.0,0000.0,0011.28,0003.05,0001.85
2022-03-01 21:12:00,,0828.5,5.00,0.00,30.1,26.1,00.0,39.2,31.3,09.1,0000.0,0011.20,0003.09,0001.84
2022-03-01 21:13:00,,0828.4,5.00,0.00,30.0,26.5,00.0,39.2,31.3,09.4,0000.0,0010.42,0003.08,0001.87
2022-03-01 21:14:00,,0828.4,4.99,0.00,29.9,27.0,00.0,39.1,31.4,09.3,0000.0,0010.40,0003.10,0001.90
2022-03-01 21:15:00,,0828.5,5.00,0.00,29.9,27.4,00.0,39.0,31.4,09.1,0000.0,0011.43,0003.14,0001.94
2022-03-01 21:16:00,,0828.5,5.01,0.00,29.9,27.8,00.0,39.0,31.5,09.2,0000.0,0011.70,0003.17,0001.98
2022-03-01 21:17:00,,0828.5,4.99,0.00,29.9,28.1,00.0,39.0,31.6,09.1,0000.0,0012.01,0003.21,0002.02
2022-03-01 21:18:00,,0828.5,5.00,0.00,29.9,28.4,00.0,39.0,31.7,09.1,0000.0,0012.54,0003.23,0002.08
2022-03-01 21:19:00,,0828.5,5.01,0.00,29.9,28.6,00.0,39.0,31.7,09.3,0000.0,0011.61,0003.25,0002.12
2022-03-01 21:20:00,,0828.4,5.00,0.00,30.0,28.8,00.0,39.0,31.7,09.2,0000.0,0011.19,0003.27,0002.13
2022-03-01 21:21:00,,0828.5,4.99,0.00,30.0,28.9,00.0,39.0,31.8,09.3,0000.0,0011.00,0003.29,0002.12
2022-03-01 21:22:00,,0828.5,5.01,0.00,30.0,29.0,00.0,39.0,31.8,09.3,0000.0,0010.75,0003.32,0002.10
2022-03-01 21:23:00,,0828.8,4.99,0.00,30.1,29.1,00.0,39.0,31.9,09.1,0000.0,0010.73,0003.30,0002.09
2022-03-01 21:24:00,,0829.0,5.00,0.00,30.1,29.2,00.0,39.0,31.9,08.9,0000.0,0011.69,0003.32,0002.08
2022-03-01 21:25:00,,0829.1,4.99,0.00,30.1,29.2,00.0,39.0,31.9,08.9,0000.0,0013.13,0003.31,0002.08
2022-03-01 21:26:00,,0829.0,5.01,0.00,30.2,29.3,00.0,39.0,32.0,09.1,0000.0,0012.10,0003.28,0002.08
2022-03-01 21:27:00,,0828.8,5.00,0.00,30.2,29.4,00.0,39.1,32.0,09.1,0000.0,0012.07,0003.23,0002.05
2022-03-01 21:28:00,,0829.1,5.00,0.00,30.2,29.4,00.0,39.1,32.0,09.0,0000.0,0012.25,0003.21,0002.00
2022-03-01 21:29:00,,0829.0,5.01,0.00,30.2,29.5,00.0,39.1,32.0,09.0,0000.0,0012.25,0003.22,0001.95
2022-03-01 21:30:00,,0829.0,4.99,0.00,30.3,29.6,00.0,39.1,32.1,08.7,0000.0,0012.67,0003.22,0001.92
2022-03-01 21:31:00,,0829.1,5.02,0.00,30.3,29.6,00.0,39.1,32.1,08.6,0000.0,0012.58,0003.19,0001.91
2022-03-01 21:32:00,,0828.9,4.98,0.00,30.3,29.6,00.0,39.2,32.2,08.7,0000.0,0012.41,0003.19,0001.90
2022-03-01 21:33:00,,0828.8,5.02,0.00,30.4,29.6,00.0,39.2,32.2,08.8,0000.0,0012.20,0003.13,0001.87
2022-03-01 21:34:00,,0829.0,5.00,0.00,30.4,29.6,00.0,39.2,32.2,08.6,0000.0,0012.75,0003.10,0001.84
2022-03-01 21:35:00,,0829.0,4.99,0.00,30.4,29.7,00.0,39.2,32.2,08.7,0000.0,0011.98,0003.02,0001.81
2022-03-01 21:36:00,,0829.0,5.01,0.00,30.4,29.7,00.0,39.3,32.2,08.8,0000.0,0011.12,0003.02,0001.77
2022-03-01 21:37:00,,0829.0,5.01,0.00,30.4,29.7,00.0,39.3,32.2,08.6,0000.0,0011.34,0002.98,0001.72
2022-03-01 21:38:00,,0829.1,5.00,0.00,30.4,29.6,00.0,39.3,32.2,08.8,0000.0,0011.40,0002.99,0001.69
2022-03-01 21:39:00,,0828.9,5.00,0.00,30.4,27.7,00.0,39.3,31.7,08.8,0000.0,0011.03,0002.96,0001.66
2022-03-01 21:40:00,,0828.5,5.01,0.00,30.2,26.0,00.0,39.2,31.2,08.8,0000.0,0010.53,0002.95,0001.63
2022-03-01 21:41:00,,0828.8,4.99,0.00,30.0,26.0,00.0,39.2,31.2,08.8,0000.0,0010.08,0002.83,0001.60
2022-03-01 21:42:00,,0828.6,5.00,0.00,29.9,26.5,00.0,39.1,31.3,09.1,0000.0,0010.23,0002.78,0001.56
2022-03-01 21:43:00,,0829.0,4.99,0.00,29.9,27.0,00.0,39.0,31.4,08.8,0000.0,0010.13,0002.73,0001.52
2022-03-01 21:44:00,,0828.9,5.02,0.00,29.9,27.4,00.0,39.0,31.4,08.6,0000.0,0010.26,0002.75,0001.51
2022-03-01 21:45:00,,0829.0,4.98,0.00,29.9,27.8,00.0,39.0,31.5,08.7,0000.0,0009.52,0002.72,0001.50
2022-03-01 21:46:00,,0829.0,5.01,0.00,29.9,28.0,00.0,38.9,31.5,08.5,0000.0,0009.28,0002.73,0001.50
2022-03-01 21:47:00,,0829.1,4.99,0.00,29.9,28.3,00.0,38.9,31.6,08.7,0000.0,0008.85,0002.65,0001.50
2022-03-01 21:48:00,,0829.0,5.00,0.00,29.9,28.5,00.0,38.9,31.7,08.5,0000.0,0008.76,0002.59,0001.49
2022-03-01 21:49:00,,0828.9,5.00,0.00,30.0,28.7,00.0,38.9,31.7,08.6,0000.0,0009.34,0002.61,0001.48
2022-03-01 21:50:00,,0829.0,5.00,0.00,30.0,28.9,00.0,38.9,31.8,08.5,0000.0,0009.22,0002.57,0001.48
2022-03-01 21:51:00,,0829.1,5.01,0.00,30.0,29.0,00.0,38.9,31.8,08.8,0000.0,0008.97,0002.43,0001.45
2022-03-01 21:52:00,,0829.1,5.00,0.00,30.1,29.1,00.0,38.9,31.9,08.8,0000.0,0008.94,0002.44,0001.44
2022-03-01 21:53:00,,0829.0,5.00,0.00,30.1,29.2,00.0,39.0,31.9,08.6,0000.0,0008.86,0002.46,0001.44
2022-03-01 21:54:00,,0829.1,4.99,0.00,30.1,29.3,00.0,39.0,32.0,08.7,0000.0,0008.25,0002.44,0001.45
2022-03-01 21:55:00,,0829.0,5.01,0.00,30.2,29.4,00.0,39.0,32.0,08.5,0000.0,0007.64,0002.40,0001.46
2022-03-01 21:56:00,,0829.1,4.99,0.00,30.2,29.5,00.0,39.0,32.0,08.5,0000.0,0007.87,0002.39,0001.47
2022-03-01 21:57:00,,0828.9,5.02,0.00,30.3,29.6,00.0,39.1,32.1,08.6,0000.0,0008.31,0002.36,0001.47
2022-03-01 21:58:00,,0829.1,4.99,0.00,30.3,29.6,00.0,39.1,32.1,08.7,0000.0,0007.97,0002.33,0001.45
2022-03-01 21:59:00,,0828.6,5.02,0.00,30.3,29.6,00.0,39.1,32.2,08.6,0000.0,0007.80,0002.32,0001.45
